Retour au catalogue

STARLINK-33568

ActifCommunicationsVLEO
NORAD 62779·PAYLOAD·🇺🇸 United States

Lancé Jan 21, 2025 depuis Vandenberg Space Force Base

Loading…

Prochains Passages (prochaines 24 heures)

TLE

FraisSource: CelesTrak SupGP

Époque: Sep 14, 2026, 21:39 UTC

1 62779C 25015X   26257.90256944 -.00054710  00000+0 -16159-2 0  2574
2 62779  53.1577 160.1768 0001285  92.9676  82.6786 15.34428170    18

Suivez STARLINK-33568 en temps réel avec AllMySat

Download on the App Store